RH
17 12 10 6 14 24 22 17 11 19 25 26 28 21 15 17 18 12 13 11 10 10 10 36 40 27 36 40 42 48 54 58 55 55 61 74 82 71 56 51 41 42 75 90 89 90 80 77 79 71 62 52 46 48 49 44 42 45 51 56 59 62 65 67 68 69 71 73 74 74 76 78 81 81 82 81 79 80 80 83 89 88 84 82 78 71 65 63 63 70 81 86 84 82 83 83 83
15 11 7 7 19 22 21 17 12 21 23 22 25 21 16 17 17 13 13 10 11 7 12 49 55 46 54 51 52 46 51 71 69 69 83 85 80 71 57 48 39 39 66 88 93 95 87 83 81 71 64 55 48 50 50 46 43 44 51 57 59 63 67 69 69 70 72 73 74 76 76 79 82 84 84 80 77 77 80 86 90 86 77 68 63 62 60 57 53 51 61 76 86 86 84 86 86
13 10 6 12 25 21 22 18 17 25 18 17 19 19 16 14 13 11 12 8 9 7 16 43 45 47 53 47 49 41 48 75 77 84 97 83 77 76 60 46 32 30 56 82 93 92 85 84 80 70 66 58 51 52 52 48 44 45 52 58 61 65 70 70 70 71 73 74 75 77 79 83 85 89 86 79 78 78 82 88 90 86 76 67 63 62 62 58 52 46 43 50 69 84 86 87 87
11 10 9 19 27 20 21 18 25 26 13 13 13 16 16 12 13 11 10 8 9 7 17 37 44 48 48 49 55 52 60 75 73 82 94 80 75 76 60 45 34 42 63 77 88 87 82 86 79 71 69 61 56 55 53 51 46 47 52 57 64 69 72 71 71 72 74 75 75 78 83 87 88 90 87 80 80 81 82 86 88 88 81 73 65 60 58 55 52 51 48 42 45 61 74 79 81
10 10 12 19 23 20 22 21 29 24 11 14 11 14 15 11 11 10 9 9 8 7 16 36 51 53 50 58 62 61 66 73 73 74 82 79 74 72 62 48 45 63 76 80 87 83 85 90 80 74 71 65 61 60 57 53 48 48 52 59 69 73 73 72 73 75 77 78 78 80 85 90 90 88 87 83 82 83 82 84 88 91 87 75 63 58 54 50 47 47 50 48 42 41 56 69 74
12 13 13 17 22 20 20 20 24 21 14 14 12 14 15 13 11 10 9 8 7 7 13 32 54 56 57 64 62 68 69 67 72 70 76 82 74 70 66 55 54 72 83 88 90 81 86 90 84 78 73 71 66 66 62 56 52 48 54 67 76 79 76 73 76 79 80 82 84 84 86 92 92 88 88 86 85 85 81 83 87 88 86 73 60 58 53 48 45 45 46 49 48 37 43 59 66
13 16 19 22 24 21 22 23 18 18 16 14 13 13 13 11 11 9 8 7 8 7 11 36 52 52 61 65 62 68 65 63 68 69 76 81 75 72 70 60 59 76 85 92 93 84 88 91 88 83 79 78 71 71 68 61 55 50 62 77 83 85 80 78 81 85 86 87 88 89 89 90 92 90 88 87 86 85 79 76 82 87 88 77 61 57 54 48 45 48 50 49 51 41 38 48 58
14 19 26 29 29 25 27 29 20 19 18 16 13 11 13 11 11 9 8 8 7 6 18 51 53 46 63 69 72 74 66 66 67 67 77 82 81 76 72 65 64 80 86 91 97 88 90 93 90 88 85 85 79 78 75 66 56 56 73 85 89 88 84 86 87 88 89 90 89 89 90 89 90 91 89 87 86 87 78 69 82 91 92 84 63 57 54 48 47 51 55 53 50 44 39 43 52
17 20 25 28 28 26 28 27 20 20 17 16 13 13 17 14 13 10 10 8 9 6 13 53 55 44 67 79 85 81 73 72 69 73 81 85 84 79 78 70 57 72 90 94 95 90 91 91 90 91 88 88 86 84 82 72 62 66 80 89 91 89 88 91 91 90 90 90 89 89 90 89 89 89 88 88 88 87 75 69 84 89 89 85 63 57 54 47 48 52 57 54 46 42 42 46 52
23 23 25 28 28 26 25 24 20 19 15 14 12 12 14 11 11 10 11 7 10 7 8 52 68 62 75 87 92 85 80 77 75 85 89 87 85 81 82 74 47 50 86 98 90 89 92 87 89 92 88 89 89 90 85 77 70 74 85 91 91 89 90 92 92 91 90 90 88 88 89 87 87 87 86 86 87 87 80 78 85 83 85 81 61 56 54 48 50 53 56 52 44 40 43 50 56
27 28 25 27 29 25 22 21 19 19 15 13 12 11 10 9 10 7 9 8 8 5 13 51 72 80 88 93 94 81 80 79 80 89 91 87 83 80 78 78 62 49 70 88 88 89 91 87 87 89 90 89 90 91 85 79 76 78 89 92 91 90 90 91 91 89 88 91 90 90 87 86 86 84 84 83 82 87 87 86 84 80 83 76 59 56 54 51 51 53 55 50 43 39 43 50 56
29 30 27 28 30 25 21 19 17 19 17 14 12 11 10 8 9 7 8 7 7 4 13 44 62 78 94 99 96 79 78 81 84 88 86 83 78 79 77 79 83 74 72 82 90 90 90 89 87 87 90 90 92 92 83 80 79 81 91 92 89 90 90 90 91 88 85 88 87 84 79 80 86 83 81 84 88 92 89 85 82 75 78 71 57 56 55 54 53 53 54 47 41 37 41 46 52
32 32 28 31 31 25 22 22 21 24 21 17 12 10 10 8 8 8 8 5 9 6 7 38 61 77 95 99 91 80 81 81 84 86 80 80 77 79 81 80 86 88 86 88 90 90 91 89 87 88 88 90 93 91 85 82 81 84 91 91 89 88 89 88 88 85 82 81 77 71 65 68 82 85 78 82 92 96 92 89 80 67 69 68 56 56 57 55 53 54 54 47 40 36 38 43 48
31 32 27 29 31 23 21 22 20 22 19 15 11 10 9 8 9 6 8 7 7 4 10 46 65 76 95 96 92 88 85 81 81 84 80 79 80 80 82 84 88 89 91 92 91 92 94 88 86 88 89 93 92 87 87 84 81 86 90 93 90 84 84 84 83 80 79 76 70 67 60 57 70 85 83 82 91 95 95 91 77 63 65 65 55 55 58 56 55 54 54 49 42 36 36 40 44
26 29 26 29 30 21 20 20 17 18 15 13 10 9 9 7 9 5 8 6 6 16 34 61 61 62 82 85 88 89 83 83 82 83 83 83 84 84 86 90 92 92 93 96 96 96 95 90 87 88 90 93 92 88 88 83 82 88 92 93 90 82 81 82 80 76 75 73 69 64 54 44 48 75 87 81 87 90 93 88 69 59 62 64 55 55 58 57 57 55 54 51 46 40 35 36 40
25 25 27 31 32 26 22 18 16 17 13 12 9 8 8 7 8 6 9 5 16 47 59 64 58 57 73 73 74 83 83 84 84 84 87 90 90 91 94 95 95 94 96 98 99 98 96 93 88 89 92 93 92 89 87 85 84 89 91 93 89 83 81 82 78 74 74 70 65 53 43 36 35 65 85 81 86 85 85 76 55 52 61 62 54 53 57 58 59 57 55 52 50 47 39 34 34
23 24 30 34 33 28 23 17 15 15 12 10 9 9 8 8 9 5 19 30 43 73 77 71 71 69 77 76 75 84 87 85 85 89 92 96 98 97 98 98 98 97 97 99 99 98 96 92 87 91 95 92 92 89 87 88 89 91 92 93 90 85 84 82 77 74 71 63 52 39 33 31 29 49 65 71 81 83 85 69 43 46 58 60 54 53 54 56 58 57 56 54 53 52 49 40 32
23 30 35 34 32 27 21 17 14 13 11 10 9 10 8 9 11 4 21 50 64 81 90 89 89 86 85 82 85 87 86 88 88 91 96 99 99 99 100 99 100 99 98 100 98 97 96 91 91 96 95 93 92 88 90 92 92 93 94 96 93 91 89 82 76 71 63 50 41 34 31 27 23 29 34 43 53 59 69 58 37 40 52 57 54 51 52 53 55 54 54 53 52 50 51 49 41
27 36 35 30 29 24 18 15 14 13 11 12 11 11 10 9 10 8 12 33 60 82 94 98 98 97 94 89 90 89 88 91 90 91 95 96 96 97 100 99 100 99 99 100 98 99 96 92 96 97 94 93 92 91 94 94 94 94 95 97 96 94 89 81 76 64 52 44 39 38 36 31 28 26 24 25 26 28 36 34 29 36 48 55 53 52 51 50 50 51 50 49 48 46 46 49 45
28 33 33 28 24 22 18 14 14 13 12 12 13 11 11 10 8 10 8 19 56 89 96 98 100 99 99 96 92 90 91 91 90 92 92 92 92 92 95 98 99 99 99 99 99 100 98 96 98 97 94 92 93 97 97 95 95 95 96 96 95 94 86 81 74 59 49 46 45 49 49 45 42 41 37 29 22 18 19 21 26 34 45 51 51 50 49 50 50 48 47 46 44 42 41 47 47
27 30 32 27 22 23 20 16 14 13 13 12 13 12 11 12 8 8 9 11 36 66 80 89 97 99 97 96 93 91 92 91 90 91 90 90 87 86 88 91 95 98 99 98 99 100 99 99 98 98 96 92 97 101 97 96 96 95 97 95 94 93 86 81 73 60 53 51 57 68 69 63 61 61 59 47 33 24 18 18 25 35 43 48 49 50 50 49 46 43 42 39 37 40 43 48 51
24 26 26 25 23 23 19 16 15 13 13 13 13 13 11 10 8 9 10 9 14 30 57 80 92 95 93 93 93 92 92 92 92 91 89 88 84 83 84 86 93 97 98 97 98 100 100 100 99 99 98 95 100 101 98 98 96 95 96 94 94 93 86 81 75 64 57 59 73 84 78 72 74 77 77 67 54 46 38 25 21 30 38 42 45 45 44 42 45 50 50 45 43 50 53 52 53
24 24 20 23 22 21 19 15 16 14 14 16 13 13 12 10 11 10 10 12 9 12 44 80 91 88 87 89 91 91 93 92 91 90 88 86 83 81 83 86 92 97 99 98 98 100 100 100 99 99 99 98 100 99 99 100 97 95 94 93 94 93 88 82 78 69 60 66 84 89 79 75 76 79 81 78 71 65 63 49 32 36 47 49 44 37 37 48 60 64 65 62 59 61 61 59 57
22 24 19 18 18 17 17 14 15 14 15 15 12 13 10 11 12 10 11 9 11 30 60 84 88 85 87 88 91 91 91 91 90 88 86 84 82 81 82 85 90 95 98 99 99 100 100 100 100 100 100 100 100 100 100 100 98 94 93 95 95 93 89 83 79 73 65 69 85 90 85 83 81 79 79 78 76 71 72 69 57 59 66 67 62 54 55 65 69 69 70 69 66 65 65 64 62
19 20 18 15 15 14 13 13 13 12 14 13 13 14 12 14 10 10 13 3 23 69 87 87 88 88 90 90 91 90 89 90 89 88 86 84 81 81 82 84 89 94 97 100 100 100 100 99 100 100 100 99 100 100 99 100 98 92 92 96 97 94 87 82 80 77 72 72 84 92 88 88 86 82 80 77 77 75 74 75 72 72 73 75 75 71 72 72 69 71 74 71 68 68 68 67 67
20 17 16 15 14 13 12 12 11 11 11 11 13 13 12 13 10 12 10 7 47 90 92 89 93 93 92 91 90 89 90 90 88 89 88 86 84 83 84 85 88 93 96 99 99 100 100 100 99 99 100 100 100 100 99 101 96 90 92 94 95 93 85 81 81 80 78 77 86 91 88 89 88 84 82 79 76 76 77 77 76 76 76 77 77 75 74 72 73 78 78 76 74 72 72 72 72
18 15 15 14 14 13 12 12 11 11 10 11 12 12 13 10 11 12 8 35 80 94 93 94 94 95 93 91 90 88 88 88 87 89 90 89 88 87 86 85 89 92 93 97 99 98 99 98 94 97 100 99 100 100 100 100 94 88 90 90 89 86 82 82 82 83 83 84 88 89 88 89 89 87 83 80 77 77 79 77 74 75 76 78 79 77 74 73 78 82 82 81 81 80 79 78 77
16 16 16 14 14 13 12 12 12 11 10 13 12 11 13 9 14 10 10 60 96 91 97 98 94 97 92 90 90 89 88 87 87 88 91 92 89 88 87 86 89 92 92 94 96 96 100 96 87 92 100 99 100 100 100 100 94 89 88 87 85 81 80 82 83 85 87 87 88 87 87 89 89 87 84 80 77 77 80 79 77 77 78 80 82 80 79 81 83 85 84 82 82 82 82 82 81
17 18 20 17 15 14 13 12 11 12 10 12 11 12 13 9 16 9 14 71 96 90 100 96 96 97 90 92 90 89 88 86 88 87 89 89 88 88 87 86 88 91 90 88 91 94 95 89 84 94 100 98 99 99 100 100 96 92 89 86 83 80 79 80 82 85 86 87 87 85 85 88 88 83 80 80 78 77 80 83 83 81 82 83 83 82 82 84 83 83 81 80 79 79 79 79 78
18 17 19 18 17 15 14 12 11 12 10 10 11 13 14 11 16 9 24 82 98 92 101 95 98 96 90 93 90 90 90 87 89 86 88 89 88 89 86 86 88 91 90 87 88 84 80 82 87 97 98 96 97 99 100 99 98 94 88 85 82 81 80 81 83 84 84 85 85 84 84 86 87 82 75 75 77 78 81 85 84 82 84 83 82 82 81 81 80 80 78 78 78 76 75 74 74
18 16 16 17 21 19 13 12 12 11 9 11 12 14 15 12 17 9 23 78 96 93 100 96 97 96 92 93 90 91 88 87 89 88 93 92 90 91 89 90 89 90 90 90 84 73 75 82 83 85 86 87 88 93 97 95 94 89 83 82 82 81 80 82 84 83 82 83 83 82 83 85 85 80 75 74 77 80 81 81 80 81 83 82 81 80 80 80 79 78 77 77 76 74 74 74 76
20 19 21 17 21 22 15 13 12 11 9 10 12 15 16 11 15 11 13 54 86 92 97 97 97 96 95 94 91 91 90 92 94 96 98 94 95 95 94 96 94 92 91 91 83 74 79 81 76 73 76 79 77 81 88 91 89 81 77 80 81 79 80 82 83 81 81 82 82 81 82 84 81 77 75 76 77 78 77 77 80 82 82 81 81 80 80 81 79 78 77 77 77 76 77 78 79
27 23 27 21 19 21 16 14 12 10 10 10 12 15 17 13 12 13 9 36 77 91 93 96 96 96 96 95 92 91 95 98 98 99 95 92 95 91 90 94 94 96 96 95 92 87 88 87 84 80 80 82 79 78 81 87 84 76 78 81 78 77 79 82 80 80 81 82 82 81 81 82 78 74 73 75 76 75 75 78 82 81 80 80 80 79 80 81 80 78 78 79 79 78 79 81 80
39 27 28 26 21 20 15 15 13 10 11 10 12 13 15 16 14 13 10 26 67 89 92 95 94 95 97 95 93 94 97 98 98 99 96 94 91 84 87 90 90 96 97 95 95 98 97 96 95 89 85 87 87 83 79 81 78 75 80 81 77 78 79 80 78 79 81 81 81 81 81 80 76 73 70 72 76 76 77 80 81 79 77 79 79 79 80 81 81 80 79 79 79 79 80 82 83
44 32 29 27 20 20 16 14 13 11 13 11 12 14 13 15 14 14 12 16 43 65 80 93 93 94 97 94 95 96 96 95 97 99 93 92 90 89 93 91 87 88 84 81 86 96 100 99 98 93 89 90 88 84 78 76 75 77 81 79 79 80 80 81 78 77 79 80 81 81 79 76 76 76 74 76 78 79 80 80 80 77 75 78 80 78 78 80 80 81 81 81 82 81 81 82 84
38 30 26 24 19 20 17 14 14 10 12 13 13 15 13 14 13 14 14 14 21 26 49 86 95 94 97 97 95 94 95 95 98 99 94 93 95 96 94 86 82 82 79 81 87 93 98 100 98 93 90 88 82 78 78 77 77 80 81 80 83 83 82 82 77 76 78 79 80 79 77 76 79 82 81 80 81 81 82 83 81 77 76 80 81 77 76 79 80 82 83 83 83 81 81 83 84
29 26 23 21 17 19 16 14 14 10 12 14 14 15 14 14 13 14 13 15 17 13 40 85 97 95 99 96 93 93 96 99 98 100 99 97 97 96 91 81 79 86 89 94 94 86 86 95 97 92 88 83 74 74 78 77 76 79 81 82 85 84 82 79 76 76 76 76 77 76 75 78 82 84 84 83 83 83 82 82 82 79 80 82 81 81 82 83 85 85 84 83 81 79 81 84 83
25 24 23 21 19 17 15 13 12 10 12 15 15 15 15 15 14 16 14 14 17 16 43 85 95 94 98 93 92 96 98 100 99 100 101 99 99 97 91 86 85 92 97 99 93 79 75 83 89 90 87 79 72 73 76 75 74 75 78 82 81 80 81 77 74 75 74 74 75 75 76 80 83 84 85 86 85 83 79 80 82 81 83 84 85 86 86 85 85 84 82 82 81 80 81 84 84
29 25 22 23 22 17 15 14 12 10 12 18 17 13 15 16 14 15 15 15 15 12 32 73 92 96 97 91 94 100 99 100 100 100 100 99 100 99 95 95 95 94 97 98 90 83 81 79 81 85 86 80 73 73 76 75 75 74 75 78 77 78 80 77 75 74 75 75 75 77 78 79 83 84 85 85 84 83 79 79 83 83 83 85 87 87 85 84 83 82 82 81 81 82 83 84 85
36 30 25 26 23 18 18 16 13 11 13 17 16 16 19 19 16 16 16 13 14 21 38 65 87 94 94 89 94 101 99 100 100 99 100 99 99 100 98 99 99 97 98 96 89 86 86 78 75 83 86 80 73 73 77 76 76 75 73 74 74 75 77 78 78 78 78 77 76 78 75 77 83 84 85 84 82 82 82 82 84 85 84 84 86 84 83 82 81 83 83 81 82 82 84 85 84
39 32 27 25 20 18 19 16 16 18 20 17 12 17 21 20 17 13 15 12 14 44 65 72 87 95 91 88 94 100 99 99 101 99 100 99 99 99 99 99 100 99 98 95 91 88 84 74 71 81 85 79 73 74 77 75 74 76 76 78 80 79 81 84 84 83 83 80 79 76 73 80 84 82 85 85 82 82 85 86 86 86 85 84 84 82 81 81 82 83 83 82 82 83 85 85 84
44 35 26 21 17 17 16 14 17 21 25 21 13 16 24 29 22 13 16 11 15 52 74 77 93 98 90 92 98 99 97 97 98 99 99 99 100 99 98 99 100 100 97 94 91 88 84 77 74 81 84 78 73 75 75 71 70 72 75 80 84 85 88 89 84 80 79 79 79 74 75 83 83 80 84 85 83 84 86 89 88 86 85 84 84 82 82 82 82 83 83 83 82 83 83 83 84
46 37 25 18 17 17 16 15 16 24 29 24 17 16 27 35 25 19 18 9 25 64 78 83 98 98 91 93 99 98 97 98 97 98 98 98 99 98 98 99 99 99 96 93 90 86 85 83 80 81 82 78 74 73 72 68 68 70 71 75 79 83 86 87 80 74 75 77 76 74 79 84 81 81 85 85 85 86 88 88 87 84 83 83 83 83 83 83 83 83 83 82 82 81 82 83 87
42 32 23 21 19 17 17 15 17 28 29 24 20 16 23 30 21 20 21 21 54 87 87 90 99 97 93 92 96 97 95 98 98 98 99 98 98 96 96 98 98 96 94 94 91 87 87 87 84 83 82 79 75 73 71 69 69 69 72 75 77 78 78 79 79 77 78 77 74 77 84 84 82 85 88 86 86 87 87 86 84 83 83 83 84 83 83 82 82 82 81 81 80 80 83 87 91
33 22 21 22 19 18 18 16 20 28 25 23 26 18 22 36 31 27 33 45 79 100 94 95 98 97 95 92 95 95 93 96 96 97 98 97 97 94 93 95 96 95 93 93 92 88 89 90 89 88 85 82 78 75 73 72 70 70 74 76 77 78 77 76 79 82 81 77 76 83 87 85 86 89 89 86 86 86 85 84 84 84 83 83 83 82 82 82 82 81 80 80 80 81 86 90 92
24 17 20 19 17 19 18 18 20 23 26 26 27 19 21 38 38 29 39 59 83 98 96 94 94 96 95 93 95 93 92 95 93 94 96 95 95 93 92 95 95 95 94 92 91 89 90 92 93 91 90 88 82 77 76 75 74 73 76 77 76 80 81 80 82 84 81 78 83 90 90 88 89 89 87 85 85 84 84 84 83 83 83 83 82 82 82 82 81 82 81 81 82 84 88 90 91
20 16 18 17 18 20 22 28 22 20 34 34 26 20 16 30 39 31 41 63 80 92 97 95 93 94 92 92 96 94 93 94 93 94 94 93 94 93 94 97 96 95 95 93 91 91 93 94 94 93 94 92 86 82 80 78 78 77 77 76 76 79 82 83 84 83 82 84 91 94 92 90 88 86 85 85 85 84 83 83 83 83 82 82 82 82 82 82 83 84 84 85 86 87 89 89 91
17 16 18 21 24 22 21 28 23 25 44 43 32 24 15 27 39 31 28 47 69 80 86 94 95 93 91 91 94 95 93 93 93 94 94 94 95 95 96 97 97 97 96 95 94 94 96 96 94 94 95 94 90 89 85 82 82 80 78 77 77 79 80 82 81 78 81 88 94 94 91 89 86 85 85 84 84 83 82 82 81 81 81 82 83 83 84 84 85 85 85 87 87 88 89 91 92
19 18 23 27 29 28 26 30 32 37 44 42 34 24 18 26 30 23 18 35 64 73 73 86 93 92 91 91 94 94 93 94 94 94 95 96 97 97 97 97 97 98 97 97 97 97 98 97 96 96 97 97 94 93 89 85 84 81 80 79 77 78 79 79 78 74 80 89 93 92 89 87 85 84 84 83 83 82 81 80 79 79 80 82 83 84 84 84 85 85 86 87 88 90 92 92 91
21 21 24 28 30 32 33 33 35 40 39 36 32 23 23 27 24 21 17 32 65 73 70 80 86 88 89 88 91 94 95 96 94 94 94 95 96 94 96 97 96 97 97 98 98 99 99 98 97 97 99 100 97 93 90 87 85 82 81 80 78 79 79 78 75 73 80 90 91 88 87 85 84 84 83 82 82 81 80 79 79 80 81 83 84 84 83 83 84 85 87 89 92 93 92 89 88
20 20 23 27 30 32 36 36 35 38 35 31 26 21 26 26 23 31 23 28 63 76 76 82 81 85 89 87 91 95 98 97 93 94 94 92 93 92 94 96 96 97 97 99 100 99 100 99 99 99 99 100 99 96 91 88 85 83 83 82 80 80 78 77 77 78 85 92 90 86 85 85 84 83 82 82 82 80 80 80 80 81 83 85 85 84 83 84 85 87 90 92 94 92 87 85 84
20 19 22 24 30 35 40 48 55 50 31 27 29 29 41 33 22 48 51 41 69 86 84 88 87 88 91 89 93 94 96 97 94 94 94 91 91 91 93 94 95 96 97 99 100 99 100 100 99 100 99 100 100 97 93 89 85 84 85 85 83 82 79 80 84 87 91 92 88 86 86 84 83 83 82 82 81 80 79 80 82 84 85 86 85 85 85 87 89 92 93 94 92 88 85 84 83
24 19 22 21 20 25 30 38 50 45 27 34 39 26 36 30 16 54 73 52 70 93 91 91 91 92 94 92 92 91 93 96 94 93 92 91 91 91 93 94 94 96 97 98 99 99 100 100 100 100 100 100 100 99 96 91 87 87 89 87 85 83 82 84 88 90 91 91 87 87 87 84 82 82 81 80 79 79 79 80 82 84 84 84 86 87 88 89 91 93 93 92 89 86 85 84 83
24 20 21 19 15 25 40 41 39 40 35 43 43 22 25 28 24 54 73 62 76 95 94 95 94 94 96 95 92 91 93 93 92 92 91 91 92 92 92 93 93 95 97 98 99 100 100 100 100 100 99 99 99 100 99 93 89 90 90 88 86 85 85 87 89 88 89 89 88 88 86 83 82 81 80 80 80 80 81 81 82 84 84 85 87 89 91 91 90 91 91 88 86 85 84 84 83
17 18 15 19 27 34 41 41 37 39 35 32 32 28 30 33 32 44 60 73 87 95 96 97 96 96 94 94 95 93 93 93 92 92 92 92 93 92 91 92 93 94 97 99 100 100 100 100 100 100 99 99 99 100 100 96 93 91 90 88 87 87 87 88 88 88 87 86 87 86 83 81 82 81 80 80 81 82 83 84 84 86 87 89 91 92 91 91 90 90 89 87 86 84 82 83 83
15 15 11 19 35 36 30 35 39 35 37 38 31 28 34 38 37 39 56 81 90 93 99 96 92 95 92 92 95 94 94 94 94 93 92 93 92 91 92 93 94 95 97 100 100 99 100 100 100 100 99 100 100 100 100 99 97 93 90 90 88 88 88 88 89 87 84 83 84 83 82 81 81 80 81 81 81 83 84 86 88 89 89 90 92 92 91 91 92 90 88 87 86 84 82 82 82
17 17 19 17 20 24 25 31 36 32 43 52 38 31 40 46 44 39 51 78 90 89 94 92 91 92 89 90 91 92 94 93 93 93 91 93 93 91 93 95 95 97 99 100 100 100 100 100 100 100 99 100 100 100 99 100 98 94 91 90 89 89 89 89 88 84 82 82 82 82 81 81 80 81 81 81 82 83 83 85 88 90 91 90 91 93 92 92 92 90 89 88 87 84 83 82 81
19 20 24 21 17 27 31 28 33 38 45 50 44 43 45 44 51 51 50 69 87 89 88 88 91 90 88 89 87 88 93 92 92 93 92 94 94 92 95 98 97 98 99 100 100 100 100 100 100 100 99 100 100 100 100 98 96 93 90 89 89 89 88 87 85 83 82 82 81 81 80 80 81 82 82 81 81 82 83 86 89 90 91 91 92 93 93 92 91 90 89 88 85 83 83 83 82
Wind_Speed
6 8 9 7 5 3 1 2 1 2 1 2 3 2 4 6 4 3 5 3 2 5 3 1 0 2 1 4 8 5 2 5 4 5 4 3 8 28 30 18 28 38 35 33 32 31 30 31 31 32 32 30 29 27 26 25 24 23 23 22 22 22 23 24 23 23 22 21 21 20 20 19 18 18 18 18 18 16 15 14 13 13 14 14 14 14 14 14 14 13 13 13 14 14 14 14 14
6 9 8 5 3 1 2 2 1 2 0 4 3 4 5 3 3 5 9 7 5 5 2 2 1 2 2 0 4 0 0 1 1 3 1 7 17 24 26 22 33 39 36 34 33 31 31 31 31 32 32 30 29 28 26 25 24 23 23 22 22 23 23 23 23 23 22 21 21 20 19 19 18 17 17 17 17 16 15 14 14 14 15 14 14 13 13 13 13 12 12 12 12 13 13 13 13
7 8 5 2 1 1 1 2 1 2 3 8 4 4 3 3 8 10 11 12 10 5 4 2 2 2 2 1 3 3 3 1 2 2 1 12 14 19 26 26 35 38 37 35 33 32 32 31 31 33 32 31 29 28 27 25 24 23 23 22 22 23 23 23 23 22 22 21 21 20 19 18 17 15 15 16 16 16 15 14 14 15 14 13 12 12 11 11 11 11 11 11 10 11 12 12 13
7 5 2 3 1 3 3 0 3 4 6 6 3 4 5 7 11 11 12 14 10 3 1 1 2 2 1 2 2 1 3 1 4 3 3 10 10 22 30 30 36 36 36 35 33 33 32 31 31 32 31 31 29 28 27 26 25 23 23 23 23 23 23 23 23 22 22 21 20 20 19 17 16 14 15 16 16 15 14 13 13 13 13 12 11 11 10 10 10 9 9 9 9 10 11 12 13
5 2 1 3 2 0 3 2 2 4 8 4 2 5 7 10 10 11 11 11 10 4 4 3 1 3 1 1 1 1 3 1 5 6 7 9 14 28 32 33 37 33 34 33 33 34 32 31 31 32 32 31 29 28 27 26 25 23 23 23 23 23 23 23 22 22 21 20 20 19 18 17 16 14 14 15 15 15 14 13 13 11 11 11 10 10 9 9 9 8 7 7 8 9 11 12 12
2 1 1 2 1 1 2 3 3 5 6 4 4 4 6 9 9 10 10 9 10 6 6 4 2 0 0 2 0 2 2 3 5 8 11 14 22 32 33 35 35 32 33 31 32 33 31 30 30 31 31 30 29 27 27 26 25 23 23 23 23 23 23 23 22 21 20 20 19 18 17 16 16 14 14 14 15 14 14 14 13 11 10 10 10 9 9 8 8 8 7 7 7 9 12 12 11
2 2 1 2 1 1 2 6 6 6 5 4 5 4 6 7 6 7 8 6 8 5 4 5 5 5 2 2 2 3 4 2 3 9 17 22 29 34 34 35 34 32 31 30 31 32 31 29 29 31 31 30 29 27 26 26 25 24 23 22 22 22 22 22 21 20 20 20 19 18 16 16 15 14 14 14 14 13 13 14 13 11 9 9 9 8 8 7 7 7 7 7 8 10 12 12 11
3 2 1 3 0 1 2 6 5 5 5 5 4 5 7 6 4 6 7 4 5 6 2 4 5 4 4 1 3 4 7 2 4 13 22 28 34 35 33 35 34 32 31 30 30 30 30 29 30 30 30 29 28 27 26 26 25 23 23 22 22 22 21 20 20 19 19 19 18 18 16 15 14 14 13 13 12 12 12 12 12 11 9 8 9 8 7 6 6 6 7 7 9 10 11 11 10
3 1 1 2 2 2 3 5 5 3 5 6 5 5 7 6 4 6 9 7 5 6 5 3 3 2 3 2 1 3 6 5 11 19 26 31 35 34 33 34 35 33 30 30 30 30 28 28 30 30 29 28 27 26 25 25 24 23 22 22 22 22 21 20 19 19 19 18 18 17 16 15 14 13 12 12 12 11 12 12 11 11 10 9 9 8 6 5 6 6 6 7 8 9 10 10 9
2 1 2 1 2 4 6 4 4 3 5 6 6 7 8 8 6 7 9 10 6 7 8 3 3 1 2 1 2 3 4 13 21 23 27 33 33 32 31 32 35 35 32 30 30 30 28 27 28 28 27 27 26 25 25 25 24 23 22 22 22 21 20 19 19 18 18 18 17 16 15 14 13 12 11 11 11 11 11 11 11 12 10 9 9 7 6 5 5 6 6 7 8 8 9 9 9
1 2 3 2 2 5 7 6 7 4 4 3 4 9 10 9 6 8 9 9 7 8 9 3 3 3 4 1 3 2 9 19 25 27 28 31 31 31 31 30 33 34 34 32 31 30 28 27 27 27 26 26 26 25 26 25 24 23 22 23 22 21 20 19 18 18 17 17 17 16 15 15 13 12 11 10 11 11 11 11 11 12 11 10 9 7 6 6 6 6 6 7 8 8 9 9 9
2 2 3 3 5 6 5 6 8 5 5 3 5 9 7 6 5 9 10 10 9 11 11 5 5 5 5 2 2 3 10 14 22 30 30 30 30 29 30 31 31 31 33 33 31 30 29 28 26 25 26 26 25 25 26 25 24 24 23 23 22 21 19 18 17 16 16 15 15 14 14 13 13 13 12 10 11 11 11 11 11 12 12 11 10 7 7 6 6 6 6 7 7 8 8 9 8
2 3 4 3 4 4 4 3 5 4 5 4 7 8 4 6 7 10 9 11 10 11 12 9 8 6 5 2 0 3 7 10 21 29 30 30 29 29 29 30 30 30 30 31 31 30 30 29 27 25 25 25 25 25 25 24 24 23 23 23 22 20 19 18 17 16 15 14 13 12 11 11 11 12 12 11 11 11 11 10 10 12 13 12 10 8 7 6 6 6 6 6 7 7 8 9 8
3 3 5 3 2 3 3 2 3 3 6 6 7 6 2 4 7 9 7 10 13 11 8 7 11 7 3 2 1 4 6 15 23 26 28 28 28 28 29 29 29 29 29 29 30 30 30 29 27 26 25 25 24 24 24 23 23 23 23 22 21 19 19 17 16 15 14 12 12 10 10 9 10 11 11 11 11 11 10 9 10 12 13 12 10 8 7 6 6 5 5 6 6 6 7 8 8
5 2 4 2 2 2 4 4 4 4 7 7 5 3 3 6 6 7 7 10 14 9 3 5 9 5 6 8 6 8 13 23 26 25 27 26 27 27 27 27 27 28 28 28 29 29 30 29 28 26 25 25 25 25 24 23 23 23 23 21 20 19 18 17 16 15 13 12 11 10 9 9 10 11 11 12 11 11 10 9 9 12 13 13 11 9 7 6 6 5 5 5 5 5 5 7 8
4 2 2 2 4 4 4 4 5 4 6 5 4 0 1 7 6 6 7 8 8 3 4 5 7 4 9 10 6 15 24 28 27 27 28 26 25 25 24 25 26 27 27 28 29 29 29 29 29 27 26 26 26 26 24 23 23 23 22 20 19 18 17 16 15 14 13 11 10 10 10 10 11 11 11 12 11 11 11 9 9 11 14 13 11 9 7 6 5 4 4 4 4 3 3 5 7
3 2 3 3 5 6 5 6 6 5 4 2 3 1 2 8 4 4 3 1 2 1 2 1 2 3 5 5 13 28 32 30 30 29 27 25 24 23 23 24 24 26 26 27 28 29 29 29 29 28 27 27 27 26 25 24 23 22 21 19 18 18 16 15 15 14 12 12 11 11 11 11 11 11 12 12 12 12 11 9 9 11 13 13 11 9 7 6 5 4 3 3 3 3 2 1 5
2 3 5 6 6 6 6 7 5 3 3 2 2 1 3 6 6 4 3 4 3 3 4 4 6 7 7 13 27 34 32 32 31 29 25 22 21 21 21 23 24 25 27 27 27 29 29 29 28 28 28 28 27 26 26 25 24 23 21 19 18 17 16 15 15 14 13 13 12 12 11 11 11 10 10 11 11 11 10 10 10 11 13 13 11 9 7 6 5 3 2 2 3 3 2 1 2
5 3 5 9 6 5 3 5 5 4 4 4 3 3 3 5 4 5 5 5 3 3 3 4 6 8 11 17 27 30 31 31 29 26 22 20 19 19 19 21 23 25 27 27 27 27 28 29 28 28 29 28 28 27 26 25 24 23 21 20 19 18 17 16 15 14 13 13 12 12 11 12 12 11 10 9 9 9 10 10 11 12 14 13 12 10 8 6 4 3 1 1 1 2 3 2 0
5 3 7 8 4 4 4 4 6 6 5 6 7 5 7 8 4 3 5 4 2 2 2 3 5 8 12 15 20 25 27 26 25 24 21 19 20 20 22 23 23 24 25 25 26 25 26 28 27 28 29 29 28 26 27 26 25 24 22 21 19 18 18 17 15 14 13 13 12 12 12 13 13 12 12 10 9 8 8 9 10 12 13 13 11 9 7 5 3 2 1 1 2 2 2 1 0
4 6 7 4 4 6 6 6 7 7 6 6 6 6 9 10 5 4 4 3 4 4 6 5 8 12 15 14 16 19 20 20 21 21 19 19 20 22 24 22 21 23 25 26 27 26 26 27 28 29 28 29 27 26 28 26 26 24 22 21 20 19 18 17 15 14 14 13 13 13 13 13 13 12 12 11 10 9 8 8 9 11 12 12 11 9 6 4 2 2 2 2 2 3 3 2 2
3 8 7 4 4 5 6 6 7 7 7 7 6 6 8 7 6 6 5 5 6 5 6 7 12 16 18 17 15 15 16 17 17 17 19 20 23 24 22 20 20 24 27 28 29 28 27 25 28 29 28 29 27 26 28 26 26 25 23 22 21 20 19 17 15 14 14 14 13 13 14 13 12 11 11 10 10 9 9 8 8 9 10 9 8 7 5 3 1 1 2 2 2 3 4 3 3
5 6 5 5 6 6 6 4 5 6 7 8 5 4 5 6 8 6 4 7 8 5 5 9 14 17 19 18 17 17 18 18 17 19 22 24 26 24 22 22 23 25 26 27 28 29 28 27 29 29 28 30 27 26 27 26 26 26 24 23 22 21 19 17 16 15 15 14 13 12 13 12 11 10 10 10 9 9 8 8 8 8 7 6 5 5 5 3 1 2 3 4 4 5 6 6 6
8 7 3 4 6 7 8 6 6 6 7 7 2 4 6 6 8 5 7 11 8 7 3 11 13 14 17 17 18 19 19 17 17 21 24 23 22 21 22 22 23 24 24 25 27 29 30 29 30 30 30 30 28 28 28 27 27 27 25 23 22 21 20 18 16 15 15 14 13 11 11 10 9 9 9 9 9 8 7 7 7 7 6 5 4 5 5 3 1 4 5 5 5 6 7 7 7
8 8 5 5 6 7 7 7 8 8 8 5 3 7 9 9 7 7 13 16 8 2 4 11 12 14 16 17 18 17 16 15 15 19 20 18 18 20 21 21 23 23 23 26 28 29 31 31 31 31 31 31 29 29 29 28 28 27 26 24 23 22 21 19 17 16 15 14 13 11 10 9 8 7 7 8 8 7 6 5 5 5 4 3 2 2 2 2 2 3 5 6 6 5 6 6 7
7 7 7 6 7 7 7 7 8 8 6 4 6 10 10 9 5 7 14 13 4 4 8 10 13 15 15 15 16 15 16 16 16 17 18 18 20 21 21 23 23 23 24 26 28 30 31 32 33 32 32 32 31 30 30 29 29 29 26 25 24 22 22 19 17 16 15 14 13 12 10 8 7 6 6 7 6 5 4 3 3 3 2 2 1 0 2 2 1 2 4 6 6 6 7 7 8
4 6 8 9 9 8 7 9 9 7 6 5 7 10 11 7 3 6 9 4 4 8 8 9 12 13 13 13 13 14 16 17 17 18 17 17 20 22 23 24 24 24 27 28 28 31 32 33 34 34 33 33 32 31 30 30 30 30 27 26 25 23 22 20 18 16 15 14 13 13 12 9 7 6 6 6 5 5 4 3 4 4 3 3 1 0 1 2 2 2 4 5 6 7 7 8 9
4 3 5 8 9 9 9 10 9 5 5 6 8 9 11 7 4 8 7 3 7 9 9 10 11 10 11 12 12 11 11 15 18 18 17 18 21 24 25 26 27 27 29 31 30 31 33 34 35 34 33 33 32 31 30 29 29 29 27 26 24 23 22 20 18 17 15 14 14 14 13 10 8 7 7 7 6 5 5 5 5 4 3 3 1 1 1 2 2 4 5 6 7 7 8 9 9
5 5 4 6 6 8 10 10 9 7 5 6 6 5 9 7 6 10 7 7 7 8 10 10 10 9 10 11 10 9 9 12 15 16 19 19 19 21 23 26 30 31 31 32 32 32 34 35 36 35 33 33 33 31 30 29 27 27 26 25 24 23 21 20 19 17 16 15 15 14 13 11 8 7 8 9 7 6 7 6 4 3 2 2 2 3 3 4 5 6 8 8 9 8 9 9 10
5 5 3 5 5 6 7 6 7 8 6 6 5 5 8 7 9 11 5 9 8 8 9 9 8 8 9 10 9 9 10 12 15 16 16 14 15 19 20 24 28 28 29 31 33 36 37 36 35 34 33 34 33 32 31 29 27 25 24 24 23 22 22 20 19 17 16 16 16 15 14 12 11 9 8 9 9 8 7 5 3 3 2 3 3 4 5 6 7 8 8 8 8 8 8 9 10
3 3 3 4 4 4 4 7 7 7 5 8 7 6 8 6 10 12 4 8 9 9 10 9 8 8 8 9 9 10 10 10 10 9 10 11 12 16 14 17 24 26 27 31 35 37 36 34 34 34 34 34 34 33 32 30 28 26 24 23 22 22 21 20 19 18 17 17 17 16 15 13 12 10 7 8 9 9 8 6 5 4 4 4 4 4 5 6 6 6 6 6 6 6 7 9 11
2 4 4 4 5 4 4 6 9 8 5 8 10 6 7 7 9 11 5 7 8 9 10 9 9 9 9 9 9 9 6 6 10 15 17 15 14 15 7 5 16 24 27 30 33 36 34 33 34 34 33 33 33 34 33 32 29 26 24 23 22 21 21 20 19 18 18 18 18 16 15 13 13 11 8 9 9 9 8 6 6 5 4 3 3 4 5 6 6 5 4 5 7 7 8 10 11
3 4 4 3 5 3 4 5 7 10 7 6 10 6 4 5 9 10 5 8 8 7 9 9 9 9 9 9 8 8 7 10 12 15 21 23 22 23 17 10 15 20 23 24 24 27 30 32 32 32 32 32 32 32 33 33 30 27 25 23 21 21 21 20 19 19 18 19 18 17 15 15 14 13 11 10 10 9 8 7 7 5 4 2 2 4 5 5 5 5 3 6 8 8 9 10 11
3 1 3 3 4 5 4 6 5 9 8 7 9 7 5 5 7 9 6 9 9 8 9 9 8 7 7 7 7 8 8 9 9 11 19 26 29 32 27 22 24 26 26 22 15 12 18 25 27 27 30 30 30 31 31 32 30 27 25 23 22 22 22 20 19 19 19 20 19 18 17 16 14 13 13 12 11 10 9 8 7 5 3 1 2 4 5 5 5 5 5 6 7 8 8 9 11
4 3 4 3 2 5 7 5 5 7 8 7 7 6 7 8 8 7 7 7 9 9 9 8 8 8 7 7 7 8 9 8 7 11 19 25 30 32 26 25 30 35 36 34 27 17 13 18 22 23 26 28 28 29 30 32 30 28 26 23 23 24 23 21 20 20 21 21 20 19 18 16 14 13 13 12 11 10 10 9 7 6 3 2 2 3 4 5 6 7 7 7 7 8 7 8 8
8 5 5 5 4 4 5 5 6 6 7 7 7 6 6 9 9 8 7 5 9 8 6 5 6 8 7 7 7 9 9 7 8 14 21 23 27 30 27 27 31 38 41 39 37 28 15 15 18 20 25 27 28 29 31 32 30 29 27 24 25 26 25 23 22 21 21 21 21 20 18 15 14 13 12 12 10 9 9 9 7 6 5 4 3 3 4 6 7 7 7 7 7 6 5 5 6
8 5 4 5 5 5 5 5 6 4 6 6 7 7 7 9 9 9 9 5 6 7 6 6 7 9 8 9 10 10 8 6 10 14 17 20 25 29 29 30 32 36 36 31 35 34 24 19 18 19 24 28 29 31 32 32 32 30 28 26 26 27 26 25 23 22 22 21 21 19 17 15 15 13 11 10 9 8 9 8 6 6 5 4 4 4 4 6 6 5 5 4 4 4 3 4 7
5 5 5 4 4 5 5 5 6 3 4 4 4 6 8 9 9 9 9 6 7 8 7 8 10 10 8 11 12 10 8 7 10 11 13 18 23 27 30 32 34 36 33 29 33 39 37 32 26 22 25 28 29 31 32 32 32 31 29 28 27 27 26 26 25 24 22 21 20 18 17 16 15 13 10 9 9 8 7 8 7 5 5 4 3 3 3 3 3 2 2 2 2 2 3 4 8
4 4 5 4 4 3 5 6 6 2 3 4 4 4 7 8 9 9 8 8 7 8 9 9 12 11 9 12 11 10 11 10 11 11 13 18 22 25 27 29 33 36 36 32 31 35 40 41 36 29 28 30 30 31 31 31 31 30 29 27 26 26 25 26 25 24 23 21 19 17 17 17 15 12 10 9 9 7 6 8 7 5 4 3 3 2 1 1 1 1 2 2 2 3 3 3 7
6 3 4 4 4 3 3 5 6 2 3 3 3 3 6 6 7 7 8 8 5 3 6 9 11 13 14 15 13 12 15 14 14 13 12 15 20 24 25 27 30 32 34 35 34 36 40 43 41 35 33 32 33 33 32 31 30 29 27 27 27 26 25 25 23 22 22 20 18 17 17 16 15 12 11 10 8 6 6 8 7 4 4 4 4 3 2 1 1 1 2 3 3 3 4 4 6
5 5 6 4 4 5 4 3 5 3 3 1 3 3 6 5 6 8 7 4 3 2 7 7 7 10 12 14 12 11 14 15 15 14 13 12 15 21 25 28 30 31 34 37 39 41 43 46 45 40 36 35 36 35 33 32 31 29 27 26 25 23 22 22 21 21 21 19 18 17 16 15 14 12 12 11 9 7 6 6 5 4 5 5 4 4 3 2 2 1 1 2 3 4 4 5 5
5 6 8 7 5 6 5 3 4 5 5 3 3 1 6 5 6 9 7 3 3 3 8 10 8 9 11 11 11 10 10 12 14 14 14 11 13 19 23 26 29 30 35 39 41 42 41 44 45 41 38 38 38 37 35 34 33 31 30 28 25 22 20 21 22 22 21 20 18 16 16 15 14 12 12 11 10 9 7 5 6 5 5 5 4 4 4 3 3 2 1 2 3 4 4 5 5
6 6 9 8 6 6 5 1 1 2 2 5 2 4 5 5 5 8 9 7 6 4 7 10 10 11 13 12 11 11 11 12 12 12 13 13 14 18 19 24 29 31 35 39 40 41 38 39 43 42 41 40 39 38 37 35 34 32 31 30 28 26 23 22 23 23 21 19 17 16 16 16 15 12 11 11 11 10 8 7 7 6 5 5 4 4 4 3 2 1 0 1 3 4 4 4 5
5 6 11 8 7 7 5 3 2 2 3 5 1 4 2 4 6 7 7 6 4 5 6 8 9 12 15 14 12 13 14 15 13 13 15 16 16 18 21 26 31 33 35 36 38 39 36 36 40 41 41 40 39 39 37 36 34 32 31 29 27 26 24 22 21 21 19 17 17 16 16 16 15 12 12 12 11 10 10 9 8 7 6 6 5 5 4 3 2 2 0 1 2 3 3 4 4
4 6 11 9 8 8 5 4 2 2 2 5 3 2 1 4 7 5 2 3 4 6 8 10 11 13 16 15 13 14 14 14 14 14 16 16 17 22 26 29 31 32 33 35 35 35 32 31 33 36 37 37 38 38 37 35 33 32 30 28 25 24 22 21 20 18 17 17 17 16 15 15 13 13 14 13 12 11 11 11 9 8 7 6 5 4 4 3 3 2 2 2 2 3 3 4 4
4 7 8 6 5 4 3 4 3 1 2 7 5 3 1 4 7 5 1 2 6 7 8 9 9 11 13 12 11 12 12 11 12 13 14 15 20 25 27 27 29 30 31 32 30 28 28 27 28 30 30 33 36 37 36 33 32 31 29 27 25 23 20 19 19 18 17 18 16 15 14 14 14 15 15 14 13 13 12 10 9 7 6 5 4 4 3 3 2 2 2 3 3 3 3 3 4
4 6 6 4 2 1 1 1 3 2 5 8 7 6 4 3 6 4 3 4 6 7 7 7 7 9 12 10 9 11 12 11 11 11 11 14 19 23 23 23 25 26 25 26 26 25 26 26 26 26 26 28 32 34 34 32 31 30 28 27 25 23 22 21 20 19 19 18 17 16 16 16 17 17 16 15 14 13 11 10 8 6 5 5 4 3 3 2 1 1 1 2 2 2 3 3 2
5 5 5 3 2 1 2 2 2 4 6 6 6 7 6 4 5 6 6 7 7 10 11 12 13 13 13 12 12 12 12 12 10 11 11 12 14 16 17 20 22 22 22 24 25 24 24 24 25 25 24 26 29 30 31 30 29 28 27 26 25 24 24 24 23 22 22 21 19 18 19 19 19 18 17 15 13 12 11 9 8 6 5 5 4 3 2 1 1 2 2 2 2 2 2 2 3
6 5 6 5 3 2 4 3 2 5 5 4 5 6 4 5 7 10 10 8 8 11 12 15 17 16 14 13 14 13 12 12 11 11 11 11 11 12 14 18 20 21 23 25 25 24 23 23 24 24 23 24 26 27 28 28 27 27 26 25 24 23 24 24 24 24 24 23 22 21 21 21 20 18 17 15 13 11 10 8 7 6 5 4 3 2 1 1 2 2 2 1 2 2 2 3 5
9 6 7 8 5 5 8 5 2 3 4 5 4 4 3 4 5 10 12 10 12 12 11 14 17 17 17 15 13 12 10 11 12 11 11 12 12 12 14 18 19 20 23 24 24 23 22 23 24 23 21 22 24 25 26 26 25 25 24 24 23 23 24 24 23 25 25 25 24 23 22 21 20 18 16 14 12 10 8 7 6 6 5 4 2 1 1 2 2 2 1 1 2 3 3 4 6
10 5 5 5 5 6 6 4 3 3 3 3 2 3 4 3 4 8 9 10 11 9 6 7 9 8 9 9 10 10 10 10 10 10 12 12 12 13 15 18 19 20 21 23 23 22 22 23 24 24 22 22 23 24 25 24 24 23 23 22 22 22 22 23 23 24 25 25 24 23 22 20 19 17 15 13 11 9 8 7 6 5 5 4 2 1 1 1 1 0 2 3 5 5 5 6 7
8 4 5 5 5 5 2 3 6 5 2 1 2 3 4 4 5 6 4 5 6 6 6 7 7 5 7 8 10 11 11 11 11 11 12 12 12 14 16 17 18 19 20 21 22 21 21 22 24 24 23 23 23 24 24 24 23 23 22 22 22 22 22 22 22 21 23 25 25 22 21 20 18 16 14 13 10 8 7 7 6 6 5 4 3 2 2 3 3 3 4 5 6 6 6 8 9
5 5 6 4 4 4 2 2 1 4 4 3 1 3 4 3 4 6 6 1 3 5 7 7 8 9 11 11 11 12 12 12 12 11 11 11 11 13 16 18 18 19 19 20 21 21 20 22 24 24 24 23 23 24 24 24 24 23 22 22 21 21 21 21 21 21 22 24 23 21 21 20 18 16 14 12 10 9 7 7 7 6 5 4 4 4 5 6 5 5 6 7 7 6 6 9 11
6 7 7 3 3 1 2 1 2 4 3 4 1 4 4 1 3 5 6 0 4 4 6 7 7 10 11 12 12 12 11 10 10 9 9 9 10 12 15 16 18 19 18 19 20 20 20 22 24 26 27 26 25 25 25 25 25 24 23 22 21 21 20 19 20 21 22 22 21 21 22 20 18 16 14 12 10 9 8 7 7 7 6 6 6 7 7 6 4 5 6 6 7 7 7 10 11
7 6 6 5 3 2 1 2 2 2 2 2 1 2 3 3 4 3 0 5 5 4 6 8 10 12 12 11 12 12 10 9 10 9 9 9 9 11 14 14 17 18 17 18 20 20 20 22 23 26 27 26 26 25 26 25 25 24 23 21 20 19 18 19 21 22 22 22 22 23 22 19 17 15 13 12 11 9 9 8 7 7 8 9 10 10 8 6 5 5 6 7 8 8 8 10 11
6 6 7 5 3 3 3 3 3 3 3 3 1 2 3 5 5 5 7 8 7 7 7 9 12 13 12 12 12 12 12 11 11 11 10 9 9 12 14 15 18 19 18 19 21 21 22 22 23 26 26 25 25 25 24 23 23 23 22 20 19 18 19 22 24 24 23 23 23 22 20 18 16 14 13 12 11 10 9 8 7 8 8 10 11 10 8 6 6 6 7 8 8 7 8 11 12
5 6 7 5 2 2 3 2 2 4 4 3 3 1 5 6 4 6 9 9 9 11 10 10 11 11 10 11 12 13 13 13 11 10 9 8 9 12 14 16 19 20 19 20 21 21 23 23 24 27 28 27 26 25 25 23 22 22 22 21 20 20 22 24 25 25 25 24 22 20 18 17 16 15 13 12 11 9 8 8 9 9 9 10 10 8 7 5 6 7 7 7 6 6 9 11 13
7 5 5 6 5 3 3 2 2 2 4 4 5 3 6 6 3 4 6 7 10 12 12 11 10 11 11 11 12 11 10 10 8 7 7 7 8 11 15 17 20 20 19 21 22 22 23 24 25 29 30 29 28 27 27 25 23 22 22 23 23 24 25 26 26 25 24 23 21 19 18 17 16 15 13 11 10 9 9 10 11 10 9 9 8 8 8 7 6 6 5 5 6 7 9 11 13
Wind_Direction
283 291 302 300 292 308 275 112 33 314 103 222 225 202 247 235 258 285 277 278 298 267 200 78 298 175 162 182 190 198 174 173 169 154 208 263 142 155 164 175 166 159 156 158 159 159 161 161 162 164 164 163 162 161 159 157 154 152 149 146 143 142 141 138 137 135 135 134 134 133 131 129 126 124 122 121 120 118 116 114 112 112 112 110 109 110 109 105 103 102 102 105 106 105 105 107 108
290 296 309 294 293 285 228 91 161 280 43 256 235 182 242 251 257 247 248 250 218 249 347 57 115 115 350 320 145 161 312 49 157 165 274 134 132 152 167 172 165 159 157 158 159 159 161 162 163 164 165 164 162 161 159 158 156 154 151 149 146 145 143 140 138 137 136 136 137 135 133 131 128 126 124 125 123 120 119 116 115 115 115 113 113 110 108 105 103 103 103 105 105 108 111 113 115
296 305 312 238 271 41 125 38 187 191 206 243 243 210 239 219 234 235 239 250 231 248 339 324 309 47 29 333 144 177 217 337 134 134 71 143 140 159 169 170 166 161 158 158 160 161 162 162 164 165 165 164 163 161 160 159 157 155 153 151 149 147 144 142 140 139 138 139 139 138 137 134 131 128 128 129 125 122 121 118 118 119 119 118 115 112 110 109 109 109 110 111 112 113 116 120 122
301 318 311 165 110 28 81 137 192 168 216 235 246 235 219 215 231 238 243 255 254 249 279 266 327 330 90 221 227 140 226 265 146 145 146 169 167 162 165 166 164 160 158 160 162 162 162 163 164 165 165 165 163 161 160 159 159 156 154 153 151 148 145 144 142 141 141 142 142 141 139 136 134 133 134 133 128 125 123 123 123 121 123 124 121 118 113 112 113 116 120 120 124 131 131 128 127
306 312 247 132 124 151 116 191 163 181 218 200 217 227 209 221 231 241 249 259 269 246 170 147 282 294 47 227 276 184 219 151 151 170 155 174 170 159 161 163 161 158 158 161 164 163 161 163 165 165 166 165 163 161 160 160 159 157 156 154 152 149 147 146 144 143 143 143 144 144 142 139 138 137 137 135 132 129 129 129 128 127 129 130 124 119 113 111 113 117 125 127 130 143 148 142 135
299 161 167 109 145 174 145 235 205 213 222 177 210 236 214 225 233 247 264 276 278 241 176 169 189 141 311 271 198 221 243 121 150 179 165 164 164 160 159 160 159 158 159 162 165 163 161 163 165 165 165 164 163 161 160 160 160 159 156 154 152 150 148 148 146 145 144 144 143 144 143 142 140 140 140 138 136 135 137 136 136 139 136 132 126 121 115 110 110 111 120 128 130 142 154 153 146
191 136 56 87 298 22 176 236 225 223 242 201 202 234 234 233 241 265 281 294 292 261 186 192 163 122 234 240 160 318 350 114 145 172 169 160 159 159 158 159 158 158 161 164 165 162 160 164 164 164 164 163 163 161 160 160 160 160 156 154 152 150 149 149 147 146 145 144 144 144 143 145 145 144 145 143 140 141 145 141 140 141 138 139 135 125 119 113 110 109 113 121 124 132 150 156 153
168 154 54 115 187 329 202 245 240 209 252 254 217 229 246 247 258 281 275 271 293 300 309 197 166 157 240 159 172 324 15 48 156 162 161 154 155 157 159 159 157 158 161 164 164 161 162 165 164 163 163 162 162 161 160 160 161 159 156 154 152 151 150 149 148 147 146 145 146 145 145 148 151 148 147 146 145 148 151 143 139 144 147 150 144 130 122 118 112 110 109 114 121 128 143 153 156
138 122 101 118 178 258 249 258 256 222 249 260 252 256 267 265 256 268 268 272 280 299 291 189 146 209 243 16 231 308 30 107 141 148 152 152 155 156 159 160 160 159 160 164 162 161 163 165 164 163 162 162 161 160 160 160 160 159 156 155 153 153 151 150 149 148 146 146 146 145 146 150 153 151 150 152 151 153 153 144 144 156 160 156 147 136 130 123 114 111 107 112 121 130 140 150 156
66 37 140 134 152 224 252 249 249 245 243 245 252 254 263 260 246 251 258 269 266 284 277 173 103 155 177 331 293 329 90 135 133 136 147 152 154 156 159 161 163 161 160 162 161 162 162 164 165 162 161 161 161 161 161 160 160 158 157 157 155 154 153 152 150 149 148 147 147 147 148 151 154 156 155 158 158 155 152 150 156 163 164 160 153 142 137 126 116 111 105 111 124 136 145 153 157
48 326 135 188 186 216 235 232 238 248 268 293 276 246 244 246 252 260 259 270 263 265 264 172 139 158 123 239 289 25 129 140 138 139 149 152 154 158 160 161 162 161 160 161 161 162 160 163 164 160 161 161 162 162 161 160 159 159 159 158 156 155 154 153 151 151 150 149 150 150 152 154 157 161 159 163 164 159 156 159 165 167 167 165 157 146 139 128 119 112 104 113 129 145 154 162 164
167 245 114 188 210 213 218 229 242 257 284 299 271 254 226 216 241 255 254 262 255 258 252 185 175 155 119 246 289 103 129 141 144 145 151 152 155 159 160 160 159 159 159 160 161 160 159 162 162 161 162 162 163 164 162 160 159 161 161 159 157 156 155 153 151 153 154 152 152 151 154 156 159 165 163 164 164 160 159 164 169 168 168 166 158 149 141 130 124 116 106 115 133 152 162 171 174
171 183 126 188 208 201 197 224 249 259 276 236 239 254 178 185 228 237 244 257 250 256 252 192 162 129 128 212 95 142 143 149 146 145 151 152 157 159 158 158 157 157 157 159 159 158 159 159 160 161 163 163 164 163 161 160 161 163 162 159 158 157 155 154 153 156 157 153 152 151 154 157 158 165 166 161 161 161 160 165 167 165 167 166 160 152 144 133 129 121 108 114 131 154 168 177 182
188 175 139 216 239 184 188 219 246 229 257 230 229 252 172 201 234 233 232 256 256 243 246 180 148 123 124 146 130 209 167 153 149 147 150 151 155 155 156 156 156 157 157 159 157 157 157 157 159 160 162 164 164 162 161 162 163 163 162 160 159 158 156 157 157 158 158 154 153 154 159 163 163 166 166 160 161 165 164 167 164 163 169 167 162 156 148 137 132 123 109 110 123 149 170 181 189
186 164 124 221 263 213 211 212 202 207 246 225 222 234 212 246 239 246 226 233 262 239 181 135 150 145 166 179 203 199 161 152 152 148 147 148 150 151 154 154 154 156 157 158 156 157 156 157 158 159 163 164 164 163 162 164 165 164 163 161 160 159 158 159 159 158 156 156 157 161 165 170 170 168 167 161 162 171 172 173 165 164 172 170 166 160 150 141 133 120 109 104 111 134 163 185 194
172 129 124 219 231 218 217 198 166 200 246 209 219 345 262 269 228 236 238 216 265 259 128 161 174 161 172 192 193 154 149 150 150 146 144 142 144 146 149 151 154 155 157 158 157 158 157 157 158 159 164 165 165 163 163 165 166 165 163 162 161 160 161 159 158 157 157 160 163 166 167 168 168 165 167 165 165 174 179 177 166 167 175 173 169 162 151 144 132 119 109 100 99 109 140 182 198
137 156 213 226 216 214 201 188 174 195 264 214 235 265 246 283 263 226 262 176 256 316 46 173 152 98 155 156 127 136 144 148 147 144 141 140 140 142 148 152 154 156 159 160 160 159 159 158 158 161 164 165 165 163 165 166 166 166 164 163 162 161 162 160 159 159 161 164 165 166 163 160 160 162 167 169 169 174 178 178 168 171 179 175 170 164 155 148 139 128 110 95 90 76 71 162 198
165 167 211 223 210 209 182 182 199 212 276 269 228 210 208 271 306 291 312 15 8 8 16 36 43 49 85 114 125 135 143 148 149 147 143 144 145 146 152 157 159 161 162 162 163 161 160 160 160 163 164 165 165 164 167 166 167 167 165 165 164 163 163 162 162 163 165 166 164 161 154 148 145 152 162 167 171 174 175 176 173 176 180 178 174 168 163 161 154 145 120 90 79 54 26 27 189
193 151 205 224 203 207 187 184 222 237 258 290 305 341 321 275 309 323 306 324 4 7 356 55 67 75 95 115 127 138 146 151 154 151 149 151 153 154 158 164 166 165 163 162 163 163 162 161 162 164 164 166 166 167 167 167 169 168 167 168 167 167 166 165 166 166 165 162 157 150 142 135 131 132 138 146 158 169 173 176 176 178 181 181 178 175 173 170 168 168 158 79 49 34 22 18 65
192 178 221 226 205 249 256 215 235 250 269 302 304 327 325 297 308 335 300 296 313 235 246 101 122 128 124 129 136 144 149 154 158 155 154 156 160 164 165 171 172 165 161 160 160 164 164 161 163 164 166 167 167 168 168 169 170 170 170 170 170 171 171 170 168 166 163 155 149 143 137 132 127 125 122 121 128 144 161 170 177 180 182 184 184 184 182 181 188 206 253 299 326 341 355 346 227
182 203 223 210 186 246 247 229 246 263 274 278 292 320 304 296 307 295 278 284 289 243 223 193 162 146 140 143 146 150 153 157 160 159 158 159 167 174 174 171 167 160 157 157 160 166 165 162 165 166 168 169 167 170 170 172 172 170 172 172 173 175 176 173 169 167 160 152 147 143 138 132 128 124 119 115 114 119 133 150 168 180 185 189 190 191 193 199 220 247 275 282 292 307 320 300 241
206 217 220 213 195 235 235 224 237 247 266 269 283 300 282 294 306 286 280 254 249 234 221 193 164 156 153 153 153 156 159 160 163 164 164 167 176 178 173 164 160 159 158 160 162 165 165 164 167 167 170 171 169 172 171 173 173 171 175 175 176 179 179 175 170 168 160 154 151 146 142 138 131 124 119 117 114 113 117 129 148 168 180 189 195 202 204 201 223 288 311 300 295 308 318 313 284
229 232 203 210 218 240 249 236 241 233 248 261 261 267 276 309 298 281 277 245 237 253 224 171 165 163 156 152 155 161 166 168 169 171 173 176 179 175 167 163 161 160 160 161 162 164 165 167 169 168 171 172 172 174 173 174 174 175 177 177 179 181 181 178 173 169 164 160 158 153 148 143 135 129 126 123 120 116 111 116 130 141 148 159 172 180 178 165 132 348 334 320 310 312 315 313 306
223 239 220 214 221 236 252 257 266 258 244 246 251 286 285 286 287 303 294 268 265 290 227 161 160 155 151 155 162 167 169 171 172 177 180 178 174 166 165 164 160 158 158 161 163 166 168 170 171 171 173 173 174 176 175 176 177 178 178 179 182 182 182 181 177 172 169 168 168 164 158 151 143 139 136 130 128 125 116 114 123 128 126 122 127 139 151 154 1 345 336 321 310 314 320 319 315
225 234 247 237 235 240 252 256 261 267 260 249 246 267 262 253 272 294 281 278 285 310 143 148 150 150 158 165 167 167 166 167 171 177 180 174 166 162 165 163 158 158 159 162 166 168 172 173 172 174 175 175 176 177 178 179 180 181 180 181 183 182 182 181 179 176 174 175 176 175 170 164 157 154 150 143 138 133 129 125 126 127 121 110 113 131 169 201 313 340 345 336 324 321 327 329 325
224 218 242 242 246 254 259 262 256 259 262 242 247 262 261 254 268 278 270 272 267 122 128 143 149 158 166 168 168 166 167 171 174 175 174 169 165 164 164 162 159 160 161 164 169 171 174 176 175 175 177 178 179 179 179 181 182 183 183 184 183 182 182 182 181 180 178 179 180 179 178 175 173 173 169 163 153 146 145 151 158 152 149 150 125 110 218 232 271 326 336 331 324 318 317 320 317
222 198 236 239 242 252 250 259 258 257 262 231 239 264 267 253 210 258 273 261 165 126 127 151 156 164 168 168 171 170 172 175 173 169 167 167 169 169 165 163 161 162 164 166 171 174 176 178 178 178 179 182 181 181 182 183 185 185 187 187 184 181 181 182 183 182 181 182 182 183 186 188 194 201 196 186 175 171 166 160 171 176 177 174 155 83 218 246 260 302 319 318 317 318 318 319 318
274 228 261 253 243 249 241 250 253 251 263 216 212 255 265 253 195 240 255 167 157 142 142 163 165 167 167 168 172 173 176 175 172 171 175 176 176 174 167 165 162 163 167 170 173 176 177 180 180 181 182 184 183 183 184 186 188 187 189 190 186 183 181 182 184 184 184 183 184 188 191 194 203 222 222 210 204 202 186 166 168 174 176 184 213 284 293 290 298 312 316 319 321 323 324 324 322
266 267 284 275 263 256 239 242 245 234 240 184 172 260 264 249 230 242 229 164 166 154 157 170 168 167 164 167 171 175 176 172 175 184 188 180 173 172 168 168 166 166 171 172 174 176 179 181 181 183 184 186 186 186 186 188 190 189 191 192 188 185 183 184 185 184 184 183 186 190 193 195 202 228 234 222 220 218 195 176 174 176 183 215 272 301 303 304 309 311 310 312 313 314 315 318 320
235 240 233 263 280 265 225 216 234 233 230 170 156 257 254 247 247 250 212 151 161 156 170 177 166 167 165 168 172 174 175 177 188 193 185 165 160 169 169 173 172 168 169 172 176 179 182 182 180 183 186 188 189 188 189 189 190 190 193 194 190 188 186 187 186 184 184 184 188 191 193 198 206 227 233 216 215 211 193 186 198 203 213 248 281 293 293 295 299 303 307 308 308 312 318 326 330
205 212 196 211 235 256 207 189 207 223 219 165 170 245 250 257 262 257 219 156 170 164 177 182 167 169 168 172 174 177 182 183 182 156 119 108 135 158 165 178 177 170 170 175 180 182 182 181 180 184 188 190 190 191 192 190 191 192 194 194 192 190 189 190 189 186 186 185 188 191 195 202 209 221 216 199 200 195 194 206 217 219 229 249 270 281 288 293 299 310 315 315 318 327 334 338 339
196 200 208 193 203 270 264 208 195 205 223 162 171 238 256 248 255 257 218 166 189 177 179 183 170 170 168 174 176 176 166 113 97 94 103 113 130 143 145 178 175 173 176 180 184 184 182 181 183 184 187 190 191 193 193 192 192 191 191 193 192 191 191 193 192 190 191 189 191 192 197 204 209 215 205 194 197 197 207 214 212 214 218 236 267 292 301 304 313 320 321 326 326 327 329 330 332
232 201 199 181 183 235 278 256 208 195 216 186 184 220 253 240 244 247 204 166 195 193 184 183 173 174 167 171 178 164 122 98 105 115 132 141 148 158 166 170 167 169 180 186 188 187 183 182 184 185 188 191 191 191 191 192 192 189 188 191 192 193 194 197 197 198 198 195 194 195 199 206 211 216 212 209 211 212 216 209 203 202 194 221 300 314 313 312 322 325 327 333 325 320 320 321 324
232 165 182 207 174 179 218 270 248 184 200 218 204 213 226 248 252 243 216 172 186 197 192 190 176 168 158 163 165 144 128 131 142 145 145 148 157 169 173 169 164 163 176 195 208 204 191 184 183 186 190 193 191 189 189 189 188 186 188 192 195 197 199 201 203 205 202 198 198 198 203 209 214 217 215 215 216 213 209 202 200 194 188 252 305 316 312 308 320 324 324 329 326 321 319 319 322
177 148 168 218 196 190 199 226 240 178 189 216 203 209 226 249 265 254 242 184 183 205 200 190 170 153 150 156 150 138 144 152 155 164 163 158 160 168 167 159 163 168 178 193 200 204 210 196 186 188 192 193 191 187 185 184 184 187 192 197 199 201 204 205 204 204 201 201 202 202 207 211 211 209 208 209 208 205 200 199 198 192 195 225 267 308 312 307 313 315 317 321 322 320 316 320 325
168 169 152 181 199 228 217 221 243 188 186 219 205 203 218 237 254 258 256 192 183 211 195 165 152 147 152 151 146 148 154 157 159 171 173 164 160 163 160 156 166 176 182 187 185 185 205 208 195 195 195 194 191 186 183 182 183 189 194 197 198 200 202 201 200 200 200 203 205 205 208 207 201 196 197 201 200 199 199 198 197 191 191 202 234 275 292 299 303 304 308 312 316 318 320 332 340
160 170 162 177 187 232 243 247 265 201 184 232 203 195 216 229 239 245 252 228 200 206 170 151 157 157 161 157 154 152 151 154 158 165 167 163 162 163 161 163 171 179 182 181 174 176 189 201 204 207 199 195 192 187 184 184 183 186 189 191 192 193 196 195 194 197 200 203 204 205 205 201 197 192 192 201 202 203 205 202 196 184 183 198 229 256 280 292 296 295 301 310 317 323 331 349 350
164 167 191 207 193 228 251 249 269 209 171 250 187 186 231 236 234 235 239 239 230 210 173 160 167 169 162 155 154 146 143 152 155 159 161 161 165 165 166 170 174 178 181 179 177 177 181 187 197 208 203 197 195 191 188 187 187 187 187 187 188 188 192 194 193 196 200 203 204 206 205 201 197 190 191 206 210 212 211 200 188 176 178 197 225 246 269 279 286 293 309 333 344 354 346 354 354
209 160 169 216 213 242 277 271 276 215 160 259 238 217 248 251 246 241 233 224 230 217 186 171 168 166 159 156 152 145 151 163 164 163 162 164 168 168 170 173 175 178 179 180 183 179 176 180 188 200 203 198 196 196 194 191 190 191 190 188 188 187 190 192 194 196 199 204 207 207 205 201 196 190 192 207 213 214 202 188 182 178 184 201 219 219 225 242 274 312 347 357 9 16 10 11 5
216 179 159 215 218 194 241 271 279 234 162 215 219 266 278 282 285 271 249 223 221 216 172 177 177 168 166 166 161 157 161 168 170 166 165 169 171 172 175 177 177 179 177 178 183 181 178 179 184 194 198 195 196 198 196 192 187 186 188 188 188 189 189 191 194 197 200 206 207 204 201 198 194 191 195 203 210 207 190 182 180 183 203 223 235 239 247 256 295 344 6 9 10 15 22 21 8
206 199 183 203 216 196 204 266 299 328 348 179 138 331 296 279 284 278 276 237 191 146 140 173 189 168 166 165 165 170 167 168 169 169 173 173 174 178 181 178 177 178 178 180 183 183 184 181 183 191 193 191 193 193 189 185 179 176 176 177 180 185 187 190 193 195 200 204 203 200 197 193 188 189 199 205 209 205 196 192 187 188 201 206 212 232 248 251 248 253 323 0 9 20 25 15 2
217 213 191 190 202 220 238 297 352 25 346 283 148 271 281 275 266 259 273 263 209 181 158 175 176 158 165 164 168 178 171 172 172 172 176 174 175 181 183 180 179 180 182 183 185 187 188 183 182 186 187 187 188 186 184 181 178 175 174 173 176 180 183 190 195 199 202 202 199 198 194 187 182 188 203 211 214 213 210 205 190 182 187 185 193 217 223 226 233 235 285 349 3 11 8 2 355
223 197 173 186 196 217 239 246 69 104 263 277 153 188 260 303 285 253 259 253 223 195 177 180 169 163 174 173 173 176 171 175 177 175 176 176 179 182 185 185 184 186 186 185 186 190 192 185 181 183 184 185 185 184 184 183 181 180 181 180 182 185 187 191 198 204 206 201 196 194 189 183 180 191 208 213 215 214 206 193 184 185 192 195 203 209 202 200 203 200 2 3 3 2 0 2 2
223 168 155 183 203 215 220 151 161 215 252 293 13 139 216 296 271 248 248 244 212 186 187 187 175 173 179 180 181 180 178 177 174 177 181 182 185 185 186 188 190 190 187 186 188 191 193 188 182 181 182 183 184 184 186 187 186 186 186 186 188 192 195 195 199 202 200 196 192 190 184 180 184 199 210 208 206 204 196 186 183 192 196 192 193 195 194 195 194 196 222 352 351 350 353 0 11
220 156 151 182 207 220 218 146 187 275 312 296 313 108 159 272 270 270 227 189 202 200 197 194 186 183 185 186 186 184 182 181 178 181 184 184 187 190 189 189 192 192 188 188 189 189 193 191 184 180 180 181 182 184 186 188 190 190 189 189 190 194 198 199 199 196 191 190 189 187 182 181 188 198 199 196 193 191 188 183 182 185 186 186 193 200 200 205 222 239 272 308 321 333 349 1 9
203 149 146 174 194 213 211 173 189 210 241 255 246 168 172 276 280 296 16 193 213 205 204 203 191 188 192 189 186 182 181 187 190 188 185 185 189 191 191 191 193 194 190 188 187 187 191 192 186 181 180 180 180 183 185 187 190 192 190 191 192 192 194 195 193 188 187 186 183 181 179 178 181 183 182 182 182 181 181 183 184 183 184 192 200 207 213 223 246 266 302 319 329 336 347 358 0
165 142 150 186 198 66 46 152 134 166 242 249 222 172 165 266 280 266 218 217 201 177 193 207 188 186 194 190 185 184 185 190 191 190 188 188 191 192 191 194 196 194 189 184 183 187 189 189 186 180 179 179 179 182 184 186 189 192 192 193 195 194 191 190 186 183 185 182 175 171 169 169 172 174 174 174 176 180 184 185 188 187 187 197 202 205 215 225 254 293 325 334 350 0 2 9 21
175 146 146 184 236 4 354 5 99 199 243 256 211 165 156 216 265 256 232 231 205 182 186 189 187 190 191 187 186 189 190 189 185 187 189 186 189 192 191 196 197 190 184 181 182 186 186 185 183 178 178 180 180 181 183 186 189 191 194 196 197 197 194 190 186 183 183 179 171 165 164 166 168 170 171 172 174 181 186 184 184 186 185 191 197 193 204 236 296 314 331 342 0 22 30 34 42
190 160 149 170 187 191 222 223 195 219 242 250 194 156 167 224 242 252 248 239 214 202 192 181 183 190 189 186 186 188 188 186 187 188 187 187 188 189 191 194 193 187 183 181 181 183 183 182 180 177 177 179 180 181 183 187 188 191 195 197 198 198 196 194 190 186 184 178 171 165 164 167 167 167 169 170 172 177 184 182 176 177 177 178 179 168 198 308 326 323 327 358 26 52 67 58 52
191 182 164 178 179 185 210 214 218 243 242 241 197 158 231 262 250 246 240 227 209 203 198 185 184 188 188 186 180 182 185 185 190 189 186 191 190 189 190 190 189 188 184 180 179 181 179 178 179 177 175 177 178 180 184 186 188 192 196 197 199 199 197 196 193 190 184 176 172 168 167 171 171 169 169 168 170 175 180 178 174 171 166 161 155 141 336 328 325 317 326 78 93 95 91 71 60
197 184 134 175 191 180 201 201 191 217 242 250 196 153 191 197 239 248 236 230 211 188 174 174 182 182 173 171 167 174 186 188 192 193 191 194 191 189 189 186 186 186 182 177 175 177 175 175 178 176 173 175 177 179 183 186 187 191 195 196 198 198 197 194 193 191 184 175 172 169 170 176 174 169 169 167 169 179 179 173 170 163 153 144 132 92 13 4 342 100 123 123 116 104 86 69 58
197 161 130 196 197 149 147 172 174 170 163 219 189 196 216 203 250 300 316 251 211 148 124 141 158 151 146 166 179 181 187 189 192 195 195 194 189 190 189 183 182 180 176 174 173 173 172 172 175 174 172 172 175 179 183 186 188 191 193 195 196 195 194 192 191 188 182 177 175 172 173 175 172 169 168 167 170 180 180 171 161 147 136 125 110 92 88 94 99 117 128 129 114 92 67 56 49
169 175 188 198 161 130 121 188 150 102 146 225 217 212 278 303 268 327 7 293 192 131 134 152 159 157 161 180 190 189 189 189 192 195 193 189 187 190 189 182 176 172 169 169 171 173 172 170 169 167 166 169 176 181 183 186 189 190 191 193 193 193 192 191 189 183 178 177 176 175 174 171 170 170 168 168 171 172 171 164 150 133 120 115 115 111 104 103 107 113 117 112 96 77 57 51 44
155 193 193 121 93 121 95 137 4 59 156 251 295 191 244 277 235 319 14 132 206 149 141 148 154 162 175 187 190 192 192 189 193 194 188 187 187 188 187 180 172 166 161 161 166 171 170 168 167 165 166 173 179 182 184 186 187 187 188 189 191 192 191 189 186 180 175 172 169 169 170 168 169 168 166 167 167 163 159 152 140 125 114 113 115 112 108 110 120 116 109 93 74 64 58 54 47
176 175 163 141 167 214 111 153 188 100 176 247 326 243 236 195 215 270 285 212 209 155 145 160 172 179 184 185 185 187 186 186 191 191 188 187 183 183 180 170 163 160 155 153 158 163 165 165 166 167 169 175 179 181 182 182 183 184 185 186 188 189 188 185 179 173 168 165 163 163 165 165 162 162 163 163 162 159 153 144 134 123 115 112 107 104 108 119 129 123 108 87 65 52 54 60 56
179 147 161 170 160 161 166 168 159 156 185 202 225 315 263 231 218 187 192 212 190 162 177 188 188 190 187 181 181 182 182 188 191 187 188 182 173 175 170 155 152 154 152 151 154 158 160 162 163 165 168 174 178 178 178 177 179 181 181 182 183 182 180 177 171 166 162 160 161 162 162 161 158 159 162 162 160 158 152 142 134 127 121 116 112 108 104 107 115 114 97 74 57 48 61 72 70
171 166 177 177 149 144 156 154 139 138 155 176 169 221 259 254 218 177 194 204 187 181 190 198 199 194 190 187 185 183 185 188 186 182 180 168 161 163 155 143 144 147 148 150 153 155 158 162 162 163 168 174 175 175 177 176 175 176 176 175 175 173 171 169 165 162 159 157 159 162 161 160 158 159 162 163 160 157 155 150 141 132 120 113 115 113 103 102 110 105 83 60 57 66 73 77 74
171 177 183 173 165 144 129 178 243 122 134 167 159 190 263 261 210 207 220 203 197 196 190 196 201 190 187 192 189 188 186 178 169 162 154 149 152 152 144 137 138 143 147 149 153 156 159 162 163 165 170 176 174 171 170 168 168 171 171 170 168 167 166 163 160 158 157 156 159 161 161 161 158 158 161 163 160 155 154 150 140 132 124 119 117 109 105 115 114 93 75 76 87 86 84 83 75